Flag for Austria Weather past 2 weeks in Graz, Styria, Austria

Now
54 °F

Partly cloudy.


Feels Like: 53 °F
Forecast: 46 / 61 °F
Wind: 3 mph from North

Location: Graz-Thalerhof-Flughafen

Current Time: Sep 22, 2014 at 11:09:48 PM

Latest Report: Sep 22, 2014 at 10:20 PM


Visibility: N/A

Pressure: 29.95 "Hg

Humidity: 63%

Dew point: 41 °F

Location of GrazLocation

Historic Weather in Graz — Graph

°F

Graz temperature yesterday

Maximum temperature yesterday: 77 °F (at 2:20 PM)
Minimum temperature yesterday: 57 °F (at 6:20 AM)
Average temperature yesterday: 64 °F

Past Weeks' High & Low Weather Summary

 TemperatureHumidityPressure
High77 °F (Sep 9, 12:50 PM)100% (Sep 8, 12:20 AM)30.12 "Hg (Sep 8, 12:20 AM)
Low52 °F (Sep 18, 4:50 AM)35% (Sep 22, 2:50 PM)29.83 "Hg (Sep 12, 12:20 AM)
Average60 °F86%30.00 "Hg
* Reported Sep 7 9:20 PM — Sep 22 9:50 PM, Graz, Weather by CustomWeather, © 2014

Note: Actual official high and low records may vary slightly from our data, if they occured in-between our weather recording intervals... More about our weather records

Advertising

Graz weather history for previous 24 hours

 ConditionsComfort  
Time TempWeatherWind HumidityBarometerVisibility
9:50 PM
Sep 22
54 °FClear.3 mph67%29.95 "Hg10 mi
9:20 PM54 °FPassing clouds.3 mph67%29.92 "HgN/A
8:50 PM52 °FClear.5 mph72%29.92 "Hg10 mi
8:20 PM54 °FPassing clouds.5 mph63%29.92 "HgN/A
7:50 PM54 °FScattered clouds.8 mph58%29.89 "HgN/A
7:20 PM54 °FScattered clouds.12 mph58%29.89 "HgN/A
6:50 PM57 °FScattered clouds.16 mph51%29.86 "HgN/A
6:20 PM59 °FPassing clouds.15 mph48%29.89 "HgN/A
5:50 PM61 °FPassing clouds.16 mph45%29.86 "HgN/A
5:20 PM63 °FPassing clouds.15 mph39%29.86 "HgN/A
4:50 PM64 °FPassing clouds.13 mph37%29.86 "HgN/A
4:20 PM64 °FPassing clouds.10 mph37%29.86 "HgN/A
3:50 PM64 °FPassing clouds.10 mph40%29.86 "HgN/A
3:20 PM64 °FPassing clouds.15 mph43%29.86 "HgN/A
2:50 PM66 °FPassing clouds.7 mph35%29.86 "HgN/A
2:20 PM64 °FPassing clouds.9 mph43%29.89 "HgN/A
1:50 PM64 °FScattered clouds.12 mph40%29.89 "HgN/A
1:20 PM66 °FScattered clouds.16 mph40%29.89 "HgN/A
12:50 PM66 °FPassing clouds.12 mph40%29.89 "HgN/A
12:20 PM64 °FPassing clouds.6 mph56%29.89 "HgN/A
11:50 AM63 °FPassing clouds.5 mph52%29.89 "HgN/A
11:20 AM63 °FScattered clouds.8 mph56%29.89 "HgN/A
10:50 AM61 °FScattered clouds.8 mph63%29.89 "HgN/A
10:20 AM61 °FPartly sunny.10 mph63%29.89 "HgN/A
9:50 AM61 °FPartly sunny.1 mph77%29.89 "HgN/A
9:20 AM59 °FPartly sunny.1 mph88%29.89 "HgN/A
8:50 AM59 °FPartly sunny.1 mph94%29.89 "HgN/A
8:20 AM59 °FPartly sunny.2 mph94%29.89 "HgN/A
7:50 AM57 °FPartly sunny.1 mph100%29.89 "HgN/A
7:20 AM57 °FCool.1 mph100%29.86 "HgN/A
6:50 AM57 °FCool.1 mph100%29.86 "HgN/A
6:20 AM57 °FPartly cloudy.2 mph100%29.86 "HgN/A
5:50 AM59 °FPassing clouds.2 mph94%29.86 "HgN/A
5:20 AM59 °FPartly cloudy.2 mph94%29.83 "HgN/A
4:50 AM59 °FPartly cloudy.2 mph94%29.86 "Hg5 mi
4:20 AM57 °FPassing clouds.2 mph100%29.83 "Hg5 mi
3:50 AM57 °FFog.No wind100%29.83 "Hg3 mi
3:20 AM57 °FCool.1 mph100%29.83 "Hg2 mi
2:50 AM57 °FCool.1 mph100%29.83 "Hg3 mi
2:20 AM59 °FLight rain. Passing clouds.1 mph94%29.86 "Hg5 mi
1:50 AM57 °FPassing clouds.1 mph100%29.89 "HgN/A
1:20 AM57 °FPassing clouds.2 mph100%29.89 "Hg5 mi
12:50 AM57 °FFog.3 mph100%29.89 "Hg1 mi
12:20 AM57 °FCool.2 mph100%29.89 "Hg4 mi
11:50 PM
Sep 21
59 °FClear.3 mph94%29.89 "Hg10 mi
11:20 PM59 °FPassing clouds.2 mph94%29.89 "HgN/A
Weather by CustomWeather, © 2014

See weather overviewHow to use our weather pages